Location: Dumbr?vi?a
(45.8833°N, 22.7000°E)
Time: 19:57:09
(UTC+00:00)

Cosmos 2366 rocket - Pass Details

Date: 03 March 2021
Orbit: 954 x 997 km, 82.9° (Epoch: 13 April)

Event Time Altitude Azimuth Distance (km) Brightness Sun altitude
Rises 18:20:29 0° 184° (S) 3,678 6.9 -21.9°
Reaches altitude 10° 18:22:59 10° 184° (S) 2,739 6.2 -22.3°
Maximum altitude 18:29:17 85° 96° (E) 1,004 3.9 -23.3°
Drops below altitude 10° 18:35:41 10° 10° (N) 2,776 6.4 -24.4°
Sets 18:38:13 0° 10° (N) 3,730 7.1 -24.8°
